Dauntless Aviation
Airports Europe United Kingdom
EGLC
LCY

London City

London, UNITED KINGDOM

Airport Info
Suggest Updated Information for this Airport

Location

Latitude / Longitude: 51°30'18"N / 0°3'12"E
  51°30.3'N / 0°3.21'E
  51.5050 / 0.0535

Nearby radio navigation aids

LCY CITY NDB on field.

Runway Information

Runway 10 /28

Dimensions: 4948 x 98 ft.
Surface: ASP
 
Runway 10
Runway 28
Latitude: 51.505528 51.504922
Longitude: 0.045753 0.064953
Elevation: 16 ft. 16 ft.
Runway true heading: 91.1 271.1
 

Instrument Procedures

  Aerodrome Chart
  Aircraft Parking/Docking Chart
  Control Zone and Control Area Chart

STARs (Standard Terminal Arrivals)

  Standard Instrument Arrival Coding Tables Rwy 09/27 JACKO 1L/ 1M
  Standard Instrument Arrival Coding Tables Rwy 09/27 GODLU 1G/ 1H
  Standard Instrument Arrival Coding Tables Rwy 09/27 GODLU 1J/ 1K/ 1L
  RNAV1 (DME/DME or GNSS) Transition Arrival Chart - Instrument Rwy 27 LAVNO 1G 1J
  RNAV1 (DME/DME or GNSS) Transition Arrival Chart - Instrument Rwy 09 ODLEG 1G 1J
  RNAV5 (VOR/DME/ DME/DME or GNSS) STAR - Instrument Rwy 09/27 JACKO 1A 1B 1D
  RNAV5 (VOR/DME/ DME/DME or GNSS) STAR - Instrument Rwy 09/27 GODLU 1A 1C 1D 1F
  RNAV5 (VOR/DME/ DME/DME or GNSS) STAR - Instrument Rwy 09/27 JACKO 1H
  RNAV5 (VOR/DME/ DME/DME or GNSS) STAR - Instrument Rwy 09/27 JACKO 1L 1M
  RNAV5 (VOR/DME/ DME/DME or GNSS) STAR - Instrument Rwy 09/27 GODLU 1G 1H
  RNAV5 (VOR/DME/ DME/DME or GNSS) STAR - Instrument Rwy 09/27 GODLU 1J 1K 1L
  Standard Instrument Arrival Coding Tables Rwy 09/27 JACKO 1A/ 1B/ 1D
  Standard Instrument Arrival Coding Tables Rwy 09/27 GODLU 1A/ 1C/ 1D/ 1F
  Standard Instrument Arrival Coding Tables Rwy 09/27 JACKO 1H

IAPs (Instrument Approach Procedures)

  ILS (5.5°GP) /DME/NDB (L) Rwy 09 (Aircraft CAT A/B/C)
  LOC/DME/NDB (L) Rwy 09
  LOC/DME/NDB (L) Rwy 27 (Aircraft CAT A/B/C)
  Visual Approach Profile Rwy 27
  Visual Approach Profile Rwy 09
  ILS (5.5°GP) /DME/NDB (L) Rwy 27 (Aircraft CAT A/B/C)
  Aerodrome Information (Textual)
  Transition Coding Tables Rwy 27 LAVNO 1G/ 1J
  Transition Coding Tables Rwy 09 ODLEG 1G 1J
  RNAV Hold Coding Tables GODLU/ OKVAP/ JACKO/ ROPMU
  ATC Surveillance Minimum Altitude Chart

Departure Procedures

  Standard Instrument Departure Coding Tables Rwy 09 BPK 1H/ CPT 1H
  Standard Instrument Departure Coding Tables Rwy 09 CLN 1H/ Rwy 27 CLN 1A
  SID - Instrument (SID) Rwy 09/27 DVR 5T 5U LYD 5T 5U
  SID - Instrument (SID) Rwy 09/27 CLN 7T 7U
  SID - Instrument (SID) Rwy 09/27 BPK 5T 5U CPT 6T 6U
  RNAV1 (DME/DME or GNSS) SID - Instrument (SID) Rwy 27 BPK 1A CPT 1A
  RNAV1 (DME/DME or GNSS) SID - Instrument (SID) Rwy 09 BPK 1H CPT 1H
  RNAV1 (DME/DME or GNSS) SID - Instrument (SID) Rwy 09/27 CLN 1A 1H
  Standard Instrument Departure Coding Tables Rwy 27 BPK 1A/ CPT 1A
  RNAV1 (DME/DME or GNSS) SID - Instrument (SID) Rwy 09/27 EKNIV 1A 1H
  Standard Instrument Departure Coding Tables Rwy 09 EKNIV 1H/ Rwy 27 EKNIV 1A
Satellite photo at:
Airport distance calculator
From:
Weather Reports

METAR

EGLC

EGLC 232320Z AUTO 22008KT 8000 NCD 10/07 Q1021
EGWU
17.8nm W
EGWU 232250Z 21004KT 9999 SCT049 09/06 Q1021 NOSIG
EGLL
18.9nm SW
EGLL 232320Z AUTO 22005KT 7000 NCD 09/07 Q1021
EGSS
23.5nm N
EGSS 232320Z AUTO 21004KT 9000 BKN046 06/05 Q1021
EGKK
23.8nm S
EGKK 232320Z 19003KT 6000 NSC 07/06 Q1022
EGMC
24.4nm NE
EGMC 232320Z 22008KT CAVOK 08/04 Q1021

TAF

EGLC
TAF AMD EGLC 231805Z 2318/2403 28008KT 9999 SCT030
EGWU
17.8nm W
TAF EGWU 231921Z 2321/2415 24007KT 9999 SCT045 PROB30 2403/2408 7000 BR PROB40 TEMPO 2412/2415 7000 -SHRA
EGLL
18.9nm SW
TAF AMD EGLL 232154Z 2321/2424 25006KT 9999 SCT045 TEMPO 2321/2407 8000 PROB30 TEMPO 2412/2417 8000 -SHRA PROB40 TEMPO 2417/2421 6000 SHRA BKN014 BECMG 2418/2421 32012KT
EGSS
23.5nm N
TAF EGSS 231701Z 2318/2424 22009KT 9999 SCT030 PROB30 TEMPO 2402/2406 8000 TEMPO 2406/2418 9000 -SHRA TEMPO 2406/2409 BKN014 BECMG 2409/2412 28010KT PROB30 TEMPO 2412/2418 SHRA
EGKK
23.8nm S
TAF AMD EGKK 232059Z 2320/2424 22006KT 7000 SCT025 TEMPO 2321/2405 9999 BECMG 2405/2408 9999 PROB30 TEMPO 2418/2421 6000 SHRA BKN014 BECMG 2420/2423 32012KT
EGMC
24.4nm NE
TAF EGMC 231953Z 2321/2406 21009KT 9999 FEW040
Safelog

 

Dauntless Aviation

© 2007-2017 Dauntless Aviation, all rights reserved
Information provided via PilotNav comes from a variety of official and unofficial data sources. As errors are possible, do not use PilotNav for primary flight planning purposes. Verify any information that you receive via PilotNav with current and canonical charts and other official documents. The material in this database is subject to database copyrights held by Dauntless Aviation and may not be copied without the express permission of Dauntless Aviation - licenses for use of part of all of this data are available for purchase; enquire via the Dauntless Aviation helpdesk. A number of mechanisms and markers exist in the database to protect against and identify infringement / copyright. Automated queries against this website are stictly prohibited, and all activity is logged and analyzed.